| time (UTC) | temp C | wind direction | speed KPH | gust KPH | rain 1hr cm | rain 24hr cm | rain mn cm | humidity % | barometer mb |
| 20260504043036 | 11 | 250 | 0.0 | 0.0 | 0.00 | 0.00 | 0.00 | 36 | 1011.7 |
| 20260504043009 | 11 | 110 | 0.0 | 4.8 | 0.00 | 0.00 | 0.00 | 45 | 1013.6 |
| 20260504041535 | 12 | 226 | 0.0 | 0.0 | 0.00 | 0.00 | 0.00 | 35 | 1011.5 |
| 20260504041502 | 11 | 71 | 1.6 | 6.4 | 0.00 | 0.00 | 0.00 | 44 | 1013.4 |
| 20260504040108 | 11 | 79 | 1.6 | 4.8 | 0.00 | 0.00 | 0.00 | 44 | 1013.3 |
| 20260504040044 | 12 | 245 | 0.0 | 0.0 | 0.00 | 0.00 | 0.00 | 35 | 1011.5 |
| 20260504034614 | 12 | 337 | 0.0 | 4.8 | 0.00 | 0.00 | 0.00 | 43 | 1013.3 |
| 20260504034533 | 12 | 243 | 0.0 | 0.0 | 0.00 | 0.00 | 0.03 | 34 | 1011.4 |
| 20260504033101 | 12 | 76 | 3.2 | 8.0 | 0.00 | 0.00 | 0.00 | 42 | 1013.3 |
| 20260504033033 | 12 | 249 | 0.0 | 0.0 | 0.00 | 0.00 | 0.03 | 33 | 1011.4 |
| 20260504031608 | 12 | 118 | 1.6 | 4.8 | 0.00 | 0.00 | 0.00 | 41 | 1013.2 |
| 20260504031532 | 12 | 248 | 0.0 | 0.0 | 0.00 | 0.00 | 0.03 | 32 | 1011.3 |
| 20260504030113 | 12 | 98 | 0.0 | 8.0 | 0.00 | 0.00 | 0.00 | 40 | 1013.1 |
| 20260504030031 | 12 | 228 | 0.0 | 0.0 | 0.00 | 0.00 | 0.03 | 31 | 1011.3 |
| 20260504024554 | 12 | 207 | 3.2 | 4.8 | 0.00 | 0.00 | 0.00 | 39 | 1013.1 |
| 20260504024532 | 13 | 241 | 0.0 | 0.0 | 0.00 | 0.00 | 0.03 | 30 | 1011.2 |
| 20260504023055 | 12 | 55 | 0.0 | 0.0 | 0.00 | 0.00 | 0.00 | 39 | 1013.2 |
| 20260504023030 | 13 | 227 | 0.0 | 0.0 | 0.00 | 0.00 | 0.03 | 29 | 1011.3 |
| 20260504021603 | 13 | 66 | 0.0 | 1.6 | 0.00 | 0.00 | 0.00 | 37 | 1013.2 |
| 20260504021530 | 13 | 231 | 0.0 | 0.0 | 0.00 | 0.00 | 0.03 | 28 | 1011.3 |
| 20260504020053 | 13 | 105 | 0.0 | 3.2 | 0.00 | 0.00 | 0.00 | 37 | 1013.2 |
| 20260504020031 | 13 | 244 | 0.0 | 0.0 | 0.00 | 0.00 | 0.03 | 28 | 1011.3 |
| 20260504014552 | 13 | 84 | 0.0 | 3.2 | 0.00 | 0.00 | 0.00 | 36 | 1013.1 |
| 20260504014530 | 13 | 274 | 0.0 | 0.0 | 0.00 | 0.00 | 0.03 | 28 | 1011.2 |
| 20260504013052 | 13 | 108 | 0.0 | 0.0 | 0.00 | 0.00 | 0.00 | 36 | 1012.9 |
| 20260504013036 | 13 | 235 | 0.0 | 0.0 | 0.00 | 0.00 | 0.03 | 28 | 1011.1 |
| 20260504011552 | 13 | 112 | 0.0 | 0.0 | 0.00 | 0.00 | 0.00 | 35 | 1012.8 |
| 20260504011528 | 13 | 233 | 0.0 | 0.0 | 0.00 | 0.00 | 0.03 | 27 | 1011.0 |
| 20260504010051 | 13 | 84 | 0.0 | 0.0 | 0.00 | 0.00 | 0.00 | 34 | 1012.6 |
| 20260504010027 | 13 | 215 | 0.0 | 0.0 | 0.00 | 0.00 | 0.03 | 26 | 1010.8 |
| 20260504004551 | 13 | 80 | 0.0 | 3.2 | 0.00 | 0.00 | 0.00 | 33 | 1012.5 |
| 20260504004527 | 13 | 217 | 0.0 | 0.0 | 0.00 | 0.00 | 0.03 | 25 | 1010.7 |
| 20260504003050 | 14 | 91 | 0.0 | 0.0 | 0.00 | 0.00 | 0.00 | 33 | 1012.3 |
| 20260504003026 | 14 | 269 | 0.0 | 0.0 | 0.00 | 0.00 | 0.03 | 25 | 1010.4 |
| 20260504001551 | 14 | 87 | 0.0 | 0.0 | 0.00 | 0.00 | 0.00 | 31 | 1012.0 |
| 20260504001526 | 14 | 233 | 0.0 | 0.0 | 0.00 | 0.00 | 0.03 | 24 | 1010.2 |
| 20260504000120 | 15 | 120 | 0.0 | 0.0 | 0.00 | 0.00 | 0.00 | 31 | 1011.8 |
| 20260504000025 | 15 | 248 | 0.0 | 0.0 | 0.00 | 0.00 | 0.03 | 24 | 1010.0 |
| 20260503234549 | 15 | 126 | 0.0 | 6.4 | 0.00 | 0.00 | 0.00 | 30 | 1011.6 |
| 20260503234527 | 15 | 281 | 0.0 | 0.0 | 0.00 | 0.00 | 0.03 | 23 | 1009.7 |
| 20260503233049 | 15 | 127 | 3.2 | 12.9 | 0.00 | 0.00 | 0.00 | 29 | 1011.4 |
| 20260503233024 | 15 | 308 | 0.0 | 0.0 | 0.00 | 0.00 | 0.03 | 22 | 1009.6 |
| 20260503231548 | 15 | 120 | 3.2 | 11.3 | 0.00 | 0.00 | 0.00 | 29 | 1011.4 |
| 20260503231524 | 15 | 304 | 0.0 | 0.0 | 0.00 | 0.00 | 0.03 | 22 | 1009.5 |
| 20260503230054 | 15 | 120 | 3.2 | 11.3 | 0.00 | 0.00 | 0.00 | 28 | 1011.2 |
| 20260503230029 | 15 | 322 | 0.0 | 0.0 | 0.00 | 0.00 | 0.03 | 21 | 1009.4 |
| 20260503224546 | 15 | 124 | 1.6 | 8.0 | 0.00 | 0.00 | 0.00 | 28 | 1011.1 |
| 20260503224523 | 15 | 311 | 0.0 | 0.0 | 0.00 | 0.00 | 0.03 | 21 | 1009.3 |
| 20260503223046 | 15 | 117 | 3.2 | 9.7 | 0.00 | 0.00 | 0.00 | 27 | 1011.2 |
| 20260503223022 | 15 | 325 | 0.0 | 0.0 | 0.00 | 0.00 | 0.03 | 21 | 1009.4 |
| 20260503221545 | 16 | 158 | 4.8 | 16.1 | 0.00 | 0.00 | 0.00 | 27 | 1011.1 |
| 20260503221522 | 15 | 260 | 0.0 | 0.0 | 0.00 | 0.00 | 0.03 | 20 | 1009.2 |
| 20260503220044 | 15 | 113 | 4.8 | 17.7 | 0.00 | 0.00 | 0.00 | 26 | 1011.1 |
| 20260503220022 | 15 | 357 | 0.0 | 0.0 | 0.00 | 0.00 | 0.03 | 20 | 1009.3 |
| 20260503214543 | 16 | 219 | 6.4 | 14.5 | 0.00 | 0.00 | 0.00 | 26 | 1011.3 |
| 20260503214522 | 15 | 323 | 0.0 | 0.0 | 0.00 | 0.00 | 0.03 | 20 | 1009.4 |
| 20260503213042 | 15 | 150 | 4.8 | 16.1 | 0.00 | 0.00 | 0.00 | 26 | 1011.2 |
| 20260503213021 | 15 | 212 | 0.0 | 0.0 | 0.00 | 0.00 | 0.03 | 20 | 1009.2 |
| 20260503211543 | 15 | 134 | 8.0 | 16.1 | 0.00 | 0.00 | 0.00 | 26 | 1011.0 |
| 20260503211532 | 15 | 332 | 0.0 | 0.0 | 0.00 | 0.00 | 0.03 | 20 | 1009.2 |
| 20260503210041 | 15 | 146 | 3.2 | 11.3 | 0.00 | 0.00 | 0.00 | 27 | 1011.0 |
| 20260503210020 | 15 | 332 | 0.0 | 0.0 | 0.00 | 0.00 | 0.03 | 21 | 1009.1 |
| 20260503204540 | 15 | 104 | 3.2 | 14.5 | 0.00 | 0.00 | 0.00 | 28 | 1010.9 |
| 20260503204519 | 15 | 298 | 0.0 | 0.0 | 0.00 | 0.00 | 0.03 | 22 | 1009.1 |
| 20260503203042 | 15 | 159 | 4.8 | 11.3 | 0.00 | 0.00 | 0.00 | 28 | 1011.2 |
| 20260503203018 | 15 | 320 | 0.0 | 0.0 | 0.00 | 0.00 | 0.03 | 21 | 1009.2 |
| 20260503201537 | 15 | 145 | 4.8 | 11.3 | 0.00 | 0.00 | 0.00 | 28 | 1011.1 |
| 20260503201517 | 15 | 310 | 0.0 | 0.0 | 0.00 | 0.00 | 0.03 | 21 | 1009.5 |
| 20260503200036 | 15 | 124 | 3.2 | 16.1 | 0.00 | 0.00 | 0.00 | 28 | 1011.3 |
| 20260503200016 | 15 | 305 | 0.0 | 0.0 | 0.00 | 0.00 | 0.03 | 22 | 1009.5 |
| 20260503194536 | 15 | 255 | 3.2 | 14.5 | 0.00 | 0.00 | 0.00 | 29 | 1011.5 |
| 20260503194514 | 15 | 248 | 0.0 | 0.0 | 0.00 | 0.00 | 0.03 | 22 | 1009.6 |
| 20260503193033 | 15 | 120 | 4.8 | 12.9 | 0.00 | 0.00 | 0.00 | 30 | 1011.6 |
| 20260503193013 | 14 | 338 | 0.0 | 0.0 | 0.00 | 0.00 | 0.03 | 23 | 1009.7 |
| 20260503191531 | 14 | 127 | 9.7 | 17.7 | 0.00 | 0.00 | 0.00 | 30 | 1011.8 |
| 20260503191513 | 14 | 351 | 0.0 | 0.0 | 0.00 | 0.00 | 0.03 | 23 | 1009.8 |
| 20260503190034 | 15 | 320 | 0.0 | 0.0 | 0.00 | 0.00 | 0.03 | 23 | 1010.1 |
| 20260503190032 | 15 | 169 | 6.4 | 16.1 | 0.00 | 0.00 | 0.00 | 30 | 1011.9 |
| 20260503184536 | 14 | 110 | 6.4 | 16.1 | 0.00 | 0.00 | 0.00 | 31 | 1012.0 |
| 20260503184512 | 15 | 295 | 0.0 | 0.0 | 0.00 | 0.00 | 0.03 | 23 | 1010.1 |
| 20260503183027 | 14 | 131 | 8.0 | 19.3 | 0.00 | 0.00 | 0.00 | 31 | 1011.9 |
| 20260503183015 | 14 | 1 | 0.0 | 0.0 | 0.00 | 0.00 | 0.03 | 24 | 1010.3 |
| 20260503181525 | 13 | 108 | 3.2 | 11.3 | 0.00 | 0.00 | 0.00 | 35 | 1012.1 |
| 20260503181508 | 13 | 57 | 0.0 | 0.0 | 0.00 | 0.00 | 0.03 | 26 | 1010.2 |
| 20260503180024 | 13 | 112 | 3.2 | 17.7 | 0.00 | 0.00 | 0.00 | 36 | 1012.3 |
| 20260503180011 | 13 | 332 | 0.0 | 0.0 | 0.00 | 0.00 | 0.03 | 28 | 1010.3 |
| 20260503174528 | 12 | 155 | 4.8 | 17.7 | 0.00 | 0.00 | 0.00 | 36 | 1012.4 |
| 20260503174506 | 13 | 297 | 0.0 | 0.0 | 0.00 | 0.00 | 0.03 | 28 | 1010.6 |
| 20260503173024 | 12 | 177 | 6.4 | 16.1 | 0.00 | 0.00 | 0.00 | 37 | 1012.5 |
| 20260503173004 | 12 | 309 | 0.0 | 0.0 | 0.00 | 0.00 | 0.03 | 28 | 1010.7 |
| 20260503171518 | 12 | 125 | 8.0 | 19.3 | 0.00 | 0.00 | 0.00 | 37 | 1012.6 |
| 20260503171503 | 12 | 309 | 0.0 | 0.0 | 0.00 | 0.00 | 0.03 | 28 | 1010.7 |
| 20260503150111 | 11 | 333 | 0.0 | 0.0 | 0.00 | 0.00 | 0.00 | 27 | 1011.0 |
| 20260503140104 | 11 | 308 | 0.0 | 0.0 | 0.00 | 0.00 | 0.00 | 36 | 1011.1 |
| 20260503081541 | 8 | 352 | 0.0 | 0.0 | 0.00 | 0.00 | 0.00 | 44 | 1009.5 |
| 20260503081529 | 8 | 108 | 0.0 | 4.8 | 0.00 | 0.08 | 0.00 | 53 | 1011.3 |
| 20260503071530 | 8 | 342 | 0.0 | 0.0 | 0.00 | 0.00 | 0.00 | 41 | 1009.4 |
| 20260503071522 | 8 | 110 | 0.0 | 3.2 | 0.00 | 0.08 | 0.00 | 50 | 1011.2 |
| 20260503054525 | 10 | 22 | 0.0 | 0.0 | 0.00 | 0.00 | 0.00 | 36 | 1009.6 |
| 20260503054520 | 10 | 114 | 0.0 | 6.4 | 0.00 | 0.08 | 0.00 | 44 | 1011.5 |
| 20260503053021 | 10 | 330 | 0.0 | 0.0 | 0.00 | 0.00 | 0.00 | 34 | 1009.7 |
| 20260503053005 | 10 | 105 | 1.6 | 8.0 | 0.00 | 0.08 | 0.00 | 43 | 1011.5 |
| 20260503051517 | 10 | 17 | 0.0 | 0.0 | 0.00 | 0.00 | 0.00 | 34 | 1010.0 |
| 20260503051502 | 10 | 115 | 1.6 | 6.4 | 0.00 | 0.08 | 0.00 | 43 | 1011.9 |
| 20260503050100 | 10 | 146 | 1.6 | 8.0 | 0.00 | 0.08 | 0.00 | 42 | 1012.0 |
| 20260503050016 | 10 | 356 | 0.0 | 0.0 | 0.00 | 0.00 | 0.00 | 33 | 1010.1 |
| 20260503044559 | 10 | 127 | 0.0 | 11.3 | 0.00 | 0.08 | 0.00 | 42 | 1012.0 |
| 20260503044515 | 10 | 328 | 0.0 | 0.0 | 0.00 | 0.00 | 0.00 | 33 | 1010.1 |